Home > Weather > Ålesund > Past weeks

Flag for Norway Past Weather in Ålesund, Norway — Yesterday and Last 2 Weeks

Now
50 °F

Low clouds.


Feels Like: 45 °F
Forecast: 49 / 56 °F
Wind: 15 mph from Northeast

Location: Alesund / Vigra

Current Time: Jun 1, 2016 at 5:35:03 AM

Latest Report: Jun 1, 2016 at 4:50 AM


Visibility: 5 mi

Pressure: 30.30 "Hg

Humidity: 100%

Dew Point: 50 °F

Location of ÅlesundLocation

Past Weather in Ålesund — Graph

°F

Ålesund Temperature Yesterday

Maximum temperature yesterday: 54 °F (at 12:20 AM)
Minimum temperature yesterday: 50 °F (at 8:50 PM)
Average temperature yesterday: 52 °F

High & Low Weather Summary for the Past Weeks

 TemperatureHumidityPressure
High64 °F (May 29, 3:50 PM)100% (May 27, 4:20 AM)30.33 "Hg (May 27, 4:20 AM)
Low39 °F (May 17, 5:50 AM)39% (May 21, 2:20 PM)29.59 "Hg (May 20, 10:50 AM)
Average50 °F77%30.01 "Hg
* Reported May 17 4:20 AM — Jun 1 4:20 AM, Ålesund, Weather by CustomWeather, © 2016

Note: Actual official high and low records may vary slightly from our data, if they occured in-between our weather recording intervals... More about our weather records

Advertising

Ålesund Weather History for the Previous 24 Hours

Scroll right to see more
 ConditionsComfort  
Time TempWeatherWind HumidityBarometerVisibility
4:20 AM
Wed, Jun 1
50 °FLow clouds.16 mph100%30.30 "Hg5 mi
3:50 AM50 °FLow clouds.15 mph100%30.30 "Hg6 mi
3:20 AM50 °FLow clouds.20 mph94%30.30 "HgN/A
2:50 AM50 °FLow clouds.17 mph100%30.30 "Hg6 mi
2:20 AM50 °FLow clouds.14 mph100%30.30 "HgN/A
1:50 AM50 °FLow clouds.14 mph100%30.33 "Hg6 mi
1:20 AM50 °FLow clouds.16 mph94%30.33 "HgN/A
12:50 AM50 °FLow clouds.17 mph94%30.33 "HgN/A
11:50 PM
Tue, May 31
50 °FLow clouds.16 mph100%30.33 "Hg5 mi
10:50 PM50 °FMore clouds than sun.14 mph100%30.33 "Hg5 mi
10:20 PM50 °FBroken clouds.14 mph100%30.33 "Hg6 mi
9:50 PM50 °FBroken clouds.13 mph100%30.33 "HgN/A
9:20 PM50 °FBroken clouds.14 mph100%30.33 "HgN/A
8:50 PM50 °FBroken clouds.16 mph100%30.30 "HgN/A
8:20 PM52 °FPartly sunny.15 mph94%30.30 "Hg5 mi
7:50 PM52 °FBroken clouds.14 mph94%30.30 "Hg6 mi
7:20 PM52 °FBroken clouds.13 mph94%30.30 "HgN/A
6:50 PM52 °FBroken clouds.10 mph94%30.30 "HgN/A
6:20 PM52 °FBroken clouds.9 mph100%30.30 "Hg6 mi
5:50 PM52 °FDrizzle. Broken clouds.13 mph94%30.30 "Hg4 mi
5:20 PM52 °FDrizzle. Broken clouds.13 mph94%30.30 "Hg5 mi
4:50 PM54 °FBroken clouds.15 mph94%30.30 "Hg6 mi
4:20 PM54 °FBroken clouds.13 mph88%30.30 "HgN/A
3:50 PM54 °FBroken clouds.13 mph94%30.30 "HgN/A
2:50 PM54 °FBroken clouds.14 mph94%30.27 "Hg5 mi
2:20 PM54 °FPartly sunny.13 mph94%30.27 "Hg5 mi
1:50 PM54 °FBroken clouds.10 mph94%30.27 "HgN/A
1:20 PM54 °FBroken clouds.9 mph94%30.27 "HgN/A
12:50 PM54 °FPartly sunny.10 mph94%30.24 "HgN/A
12:20 PM52 °FPartly sunny.12 mph100%30.27 "HgN/A
11:50 AM54 °FPartly sunny.12 mph94%30.24 "HgN/A
11:20 AM54 °FBroken clouds.13 mph94%30.24 "HgN/A
10:50 AM54 °FBroken clouds.10 mph94%30.24 "Hg6 mi
10:20 AM54 °FPartly sunny.13 mph94%30.24 "Hg6 mi
9:50 AM54 °FDrizzle. Partly sunny.9 mph94%30.24 "Hg6 mi
9:20 AM54 °FBroken clouds.9 mph94%30.21 "HgN/A
8:50 AM54 °FBroken clouds.6 mph94%30.21 "HgN/A
8:20 AM54 °FBroken clouds.9 mph94%30.21 "Hg5 mi
7:50 AM52 °FBroken clouds.10 mph100%30.21 "HgN/A
7:20 AM52 °FPartly sunny.10 mph100%30.21 "HgN/A
6:50 AM52 °FPartly sunny.10 mph100%30.21 "Hg5 mi
6:20 AM52 °FPartly sunny.12 mph100%30.21 "Hg5 mi
5:50 AM52 °FDrizzle. Partly sunny.8 mph100%30.21 "Hg6 mi
5:20 AM52 °FMore clouds than sun.6 mph100%30.21 "Hg6 mi
Weather by CustomWeather, © 2016

See weather overviewHow to use our weather pages